Regional Weather Roundup
Issued by NWS

Home | Current Version | Previous Version | Graphics & Text | Print | Product List | Glossary On
Versions: 1 2 3 4 5 6 7 8 9 10 11 12 13 14 15 16 17 18 19 20 21 22 23 24 25 26 27 28 29 30 31 32 33 34 35 36 37 38 39 40 41 42 43 44 45 46 47 48 49 50
000
ASUS43 KMPX 112110
RWRMN
WEATHER ROUNDUP FOR MINNESOTA
NATIONAL WEATHER SERVICE TWIN CITIES/CHANHASSEN MN
400 PM CDT FRI JUL 11 2014


NOTE: "FAIR" INDICATES FEW OR NO CLOUDS BELOW 12,000 FEET WITH NO
SIGNIFICANT WEATHER AND/OR OBSTRUCTIONS TO VISIBILITY. N/A MEANS
CURRENT SKY AND/OR WEATHER CONDITIONS ARE NOT AVAILABLE.

MNZ060>063-068>070-112200-
   Twin Cities Metro

CITY           SKY/WX    TMP DP  RH WIND       PRES   REMARKS
TWIN CITIES    CLOUDY    80  68  66 SW8       29.96S
ST PAUL        CLOUDY    79  68  69 S6        29.96F
CRYSTAL        CLOUDY    79  68  69 SW8       29.95R
BLAINE         CLOUDY    81  70  69 SW9       29.96S
LAKEVILLE      CLOUDY    79  68  69 SW3       29.97R
EDEN PRAIRIE   CLOUDY    78  69  73 SW7       29.95S
SOUTH ST PAUL  CLOUDY    79  67  67 S6        29.96F
LAKE ELMO      CLOUDY    77  68  73 S9        29.99S
$$
MNZ001>005-007-008-013>017-022>024-027-028-112200-
   Northwest Minnesota

CITY           SKY/WX    TMP DP  RH WIND       PRES   REMARKS
BEMIDJI        PTSUNNY   83  65  54 NW10G20   29.91S
HALLOCK        SUNNY     82  52  34 W18G26    29.89S
ROSEAU         MOSUNNY   81  55  41 W14G26    29.89R
WARROAD        SUNNY     82  57  42 W10G18    29.88R
THIEF RVR FALL SUNNY     82  52  34 W13G18    29.92S
CROOKSTON      SUNNY     84  55  37 NW15      29.93R
FOSSTON        SUNNY     82  63  51 W9G16     29.94R
DETROIT LAKES  SUNNY     82  68  61 N9        29.95S
MOORHEAD       SUNNY     86  68  54 N10       29.93R
PARK RAPIDS    MOSUNNY   84  67  56 W15       29.93R
$$
MNZ006-009>011-018-025>026-112200-
   North Central Minnesota

CITY           SKY/WX    TMP DP  RH WIND       PRES   REMARKS
BAUDETTE       MOSUNNY   82  59  45 W9G17     29.87S
FLAG ISLAND    MOSUNNY   79  48  34 W22G28    29.83S HAZE
INTL FALLS     MOSUNNY   81  65  58 NW20G26   29.84S
WASKISH        SUNNY     81  66  61 W7        29.88S
BIG FORK       SUNNY    N/A N/A N/A SW9       29.89R
LONGVILLE      MOSUNNY   84  70  61 W6        29.92R
GRAND RAPIDS   CLOUDY    77  70  78 S5        29.92S
CRANE LAKE     TSTM      66  64  94 N5        29.91R VSB 1
ORR            MOSUNNY   81  68  65 S6        29.84F
COOK           PTSUNNY   75  68  78 S8        29.88F
$$
MNZ012-019>021-037-112200-
   Northeast Minnesota

CITY           SKY/WX    TMP DP  RH WIND       PRES   REMARKS
DULUTH         CLOUDY    71  66  84 SW13      29.95R
ELY            CLOUDY    70  66  88 S12       29.89F
HIBBING        CLOUDY    74  68  81 SW7       29.91F
EVELETH        CLOUDY    72  68  88 SW9       29.93S
DULUTH HARBOR  CLOUDY    61  57  88 N3        29.94R
TWO HARBORS    CLOUDY    70  64  83 SW8       29.92S
SILVER BAY     MOSUNNY   66  66 100 S7        29.91S FOG
GRAND MARAIS     N/A     50  49  96 NE5       29.92S
G MARAIS ARPRT CLOUDY    64  61  88 S6        29.95R FOG
$$
MNZ029>031-032-039>041-046>048-054>057-064-112200-
   West Central Minnesota

CITY           SKY/WX    TMP DP  RH WIND       PRES   REMARKS
FERGUS FALLS   SUNNY     86  66  51 NW9       29.92R
WHEATON        SUNNY     84  68  58 W8        29.94S
MORRIS         SUNNY     86  72  62 CALM      29.93R HX  92
ALEXANDRIA     PTSUNNY   82  70  66 NW6       29.96S
ELBOW LAKE     PTSUNNY   82  70  65 N6        29.93S
WADENA         SUNNY     82  70  65 W8        29.93S
GLENWOOD       SUNNY     82  72  69 S5        29.96S
APPLETON       SUNNY     90  68  48 W5        29.92S HX  93
BENSON         PTSUNNY   84  72  65 CALM      29.93S
ORTONVILLE     SUNNY     88  68  51 CALM      29.93S HX  91
MADISON        SUNNY     88  70  55 NW6       29.93R HX  92
WILLMAR        FAIR      84  70  61 SW7       29.96S
$$
MNZ033>034-036-042>043-049>051-058-059-112200-
   Central Minnesota

CITY           SKY/WX    TMP DP  RH WIND       PRES   REMARKS
ST CLOUD       PTSUNNY   80  69  69 SW10      29.95S
SAUK CENTRE    MOCLDY    80  71  73 S8        29.95S
PAYNESVILLE    HVY RAIN  76  70  80 S7        29.96F
AITKIN         SUNNY     79  72  78 S8        29.92F
PINE RIVER     MOSUNNY   82  66  57 W5        29.95S
BRAINERD       CLOUDY    82  70  66 S12       29.94S
STAPLES        PTSUNNY   82  68  61 W7        29.93S
LONG PRAIRIE   PTSUNNY   79  72  78 S9        29.95S
LITTLE FALLS   PTSUNNY   75  68  78 SW6       29.95S
LITCHFIELD     PTSUNNY   81  73  78 SW5       29.97R
BUFFALO        CLOUDY    77  68  73 SW7       29.98R
MAPLE LAKE     CLOUDY    78  71  78 SW3       29.97S
$$
MNZ037-044-045-052-053-112200-
   East Central Minnesota

CITY           SKY/WX    TMP DP  RH WIND       PRES   REMARKS
PRINCETON      PTSUNNY   75  70  83 S6        29.96S
MORA           PTSUNNY   72  64  78 SW6       29.98S
CAMBRIDGE      MOSUNNY   77  64  65 SW7       29.95R
RUSH CITY      CLOUDY    74  67  77 SW3       29.96S
MOOSE LAKE     CLOUDY    72  68  88 SW9       29.94R
HINCKLEY       CLOUDY    73  68  83 SW9       29.96S
CLOQUET        CLOUDY    72  66  83 SW7       29.95S
MCGREGOR       CLOUDY    73  68  83 S9G16     29.94F
$$
MNZ071>073-080-081-089-090-097-098-112200-
   Southwest Minnesota

CITY           SKY/WX    TMP DP  RH WIND       PRES   REMARKS
MONTEVIDEO     SUNNY     91  72  52 CALM      29.93F HX  98
GRANITE FALLS  MOSUNNY   83  71  66 SW6       29.95S
CANBY          MOSUNNY   88  71  55 CALM      29.94S HX  93
MARSHALL       MOSUNNY   84  72  65 SW10      29.94S
REDWOOD FALLS  SUNNY     83  71  67 SW15      29.95R
OLIVIA         CLOUDY    79  70  73 SW9       29.96R
PIPESTONE      MOSUNNY   81  72  74 SW6       29.98F
WINDOM         PTSUNNY   82  70  65 SW10G16   29.98S
WORTHINGTON    PTSUNNY   79  70  73 W7        30.00F
JACKSON        MOSUNNY   81  68  65 SW9       30.00R
TRACY          MOSUNNY   82  71  70 SW13      29.97S
SLAYTON        PTSUNNY   80  69  68 CALM      30.00S
$$
MNZ065>067-074>077-082>085-091>093-112200-
   South Central Minnesota

CITY           SKY/WX    TMP DP  RH WIND       PRES   REMARKS
MANKATO        CLOUDY    81  66  61 SW12G17   29.97R
NEW ULM        SUNNY     82  72  69 W8        29.96S
ST JAMES       PTSUNNY   84  68  58 SW6       29.97S
FAIRMONT       CLOUDY    82  66  57 S10       29.98S
GLENCOE        SUNNY     80  68  68 S7        29.96S
FARIBAULT      PTSUNNY   82  64  54 S12G17    29.98R
OWATONNA       MOSUNNY   81  68  65 S13G20    29.98S
WASECA         MOSUNNY   81  64  57 S15G23    30.00R
ALBERT LEA     PTSUNNY   81  66  61 S9        30.00F
$$
MNZ078>079-086>088-094>096-112200-
   Southeast Minnesota

CITY           SKY/WX    TMP DP  RH WIND       PRES   REMARKS
ROCHESTER      MOSUNNY   77  65  66 S17G29    30.02F
RED WING       CLOUDY    79  66  65 S7        29.98S
STANTON        CLOUDY    81  68  65 S8        29.97R
DODGE CENTER   MOSUNNY   79  66  65 S17G28    30.00F
WINONA         MOSUNNY   79  66  65 S7        30.00F
AUSTIN         MOSUNNY   75  64  69 S10       30.02S
PRESTON        MOSUNNY   77  65  68 S17G24    30.04S
$$
ABBREVIATIONS USED IN REMARKS
   TC - TEMPERATURES IN CELSIUS
  WCI - WIND CHILL INDEX
   HX - HEAT INDEX
  VSB - VISIBILITY
$$



USA.gov is the U.S. government's official web portal to all federal, state and local government web resources and services.